+ View the NASA Portal
+ Center for Near-Earth Object Studies
IMPORTANT:
The SSD Announcement email list is now available. Major changes are coming in the near future, including possible hostname and/or URL changes. To be notified of such changes, subscribe to this email list.
Please visit
this page
for more details.
Don't show this message again
JPL Small-Body Database Browser
Search:
[
help
]
295246 (2008 GX33)
Classification:
Main-belt Asteroid
SPK-ID:
2295246
[
Ephemeris
|
Orbit Diagram
|
Orbital Elements
|
Mission Design
|
Physical Parameters
|
Discovery Circumstances
|
Close-Approach Data
]
[ show orbit diagram ]
Orbital Elements at Epoch 2458600.5 (2019-Apr-27.0) TDB
Reference:
JPL 7
(heliocentric ecliptic J2000)
Element
Value
Uncertainty (1-sigma)
Units
e
.07944921983446998
6.8347e-08
a
2.963357326649695
4.9946e-08
au
q
2.727920898956616
2.2255e-07
au
i
9.896980589323958
1.7821e-05
deg
node
190.6733824921322
3.6188e-05
deg
peri
78.2852175147372
0.00013412
deg
M
353.4129373623292
0.0001363
deg
t
p
2458634.592884977282
(2019-May-31.09288498)
0.00070599
TDB
period
1863.264290463985
5.10
4.7107e-05
1.29e-07
d
yr
n
.1932093057557357
4.8847e-09
deg/d
Q
3.198793754342774
5.3914e-08
au
Orbit Determination Parameters
# obs. used (total)
113
data-arc span
5457 days (14.94 yr)
first obs. used
2003-05-06
last obs. used
2018-04-14
planetary ephem.
DE431
SB-pert. ephem.
SB431-N16
condition code
0
norm. resid. RMS
.60119
source
ORB
producer
Otto Matic
solution date
2019-Jul-14 10:31:36
Additional Information
Earth MOID
= 1.73429 au
Jupiter MOID
= 1.88968 au
T_jup
= 3.238
[ show covariance matrix ]
[
Ephemeris
|
Orbit Diagram
|
Orbital Elements
|
Mission Design
|
Physical Parameters
|
Discovery Circumstances
|
Close-Approach Data
]
Physical Parameter Table
Parameter
Symbol
Value
Units
Sigma
Reference
Notes
absolute magnitude
H
16.4
n/a
MPO437320
295246 (2008 GX33)
Discovered 2008-Apr-03 by Mt. Lemmon Survey at Mount Lemmon
Reference:
20110912/Numbers.arc
Last Updated:
2011-09-14
[ show close-approach data ]
Alternate Designations
2008 GX33
= 2005 UJ287
[
Ephemeris
|
Orbit Diagram
|
Orbital Elements
|
Mission Design
|
Physical Parameters
|
Discovery Circumstances
|
Close-Approach Data
]
2019-Dec-12 06:04 UT
(server date/time)
Site Manager:
Ryan S. Park
Webmaster
:
Alan B. Chamberlin